Location: Unspecified
(0.0000°N, 0.0000°E)
Time: 09:14:25
(UTC+00:00)

COSMOS 2251 DEB - Pass Details

Date: 14 February 2026
Orbit: 744 x 1394 km, 73.9° (Epoch: 9 March)

Event Time Altitude Azimuth Distance (km) Brightness Sun altitude
Exits shadow 04:11:39 28° 360° (N) 2,043 ? -29.8°
Maximum altitude 04:15:54 73° 79° (ENE) 1,301 ? -28.7°
Drops below altitude 10° 04:24:08 10° 162° (SSE) 3,409 ? -26.7°
Sets 04:27:06 0° 164° (SSE) 4,423 ? -26.0°
